Main page
METAR-TAF:

METAR-TAF

Airports :

Pontianak, Indonesia

Supadio International Airport

latitude: 00-09S, longitude: 109-24E, elevation: 3 m

Current weather observation

The report was made 30 minutes ago, at 11:30 UTC
Wind 4 kt from the Southwest
Temperature 27°C
Humidity 89%
Pressure 1008 hPa
Visibility: 6000 m
Scattered clouds at a height of 1200 ft

METAR: WIOO 251130Z 22004KT 6000 SCT012 27/25 Q1008 NOSIG

Time: 19:00 (12:00 UTC)


TAF: missing

Weather observations and forecasts of more than 4000 airports (METAR and TAF reports).

The available stations are represented by yellow and red dots on the map.

Hover mouse over dot to see the name of the station.

Then click to see weather observations and forecasts.

To change the map : click on the green buttons with a black cross to zoom in, on the green button with a dash to zoom out, or on the green arrows for adjacent maps.


METAR-TAF: